sat.trackr.live / text

‹ back to catalog

STARLINK-37992

NORAD 69681 · 2026-145E

PAYLOAD ACTIVE UNKNOWN

§ Identity

Operator
Country
US
Launch date
2026-06-25
Launch site
AFWTR
Launch vehicle
Mass (kg)
RCS (m²)

Purposes: comms

External: N2YO · Heavens-Above · Gunter

§ Orbital elements

Epoch: 2026-09-20T00:01:16.269600Z

Period
93.91 min
Inclination
97.2858°
Eccentricity
0.0002644
Mean motion
15.33453457 rev/d
Perigee alt
463.7 km
Apogee alt
467.3 km
Semi-major
6,843.7 km
B*
5.5878e-4
RAAN
109.6242°
Arg perigee
85.6327°
Mean anomaly
274.5217°
Rev number
1,346

§ Raw data

STARLINK-379921 69681U 26145E   26263.00088275  .00018014  00000+0  55878-3 0  99962 69681  97.2858 109.6242 0002644  85.6327 274.5217 15.33453457 13464

JSON: /api/v1/satellites/69681 · /tle

For live sub-satellite position, see the globe view (requires WebGL).

§ Visibility from observer

Set your observer location to see the next 7 days of passes ≥ 10°. The values pass through the URL so the page stays shareable.

No JS? Fill the form by hand. The geolocation button needs JavaScript.